Weather History for KCLE - May, 2014

Change the Weather History Date:

Friday, May 2, 2014

  Actual Average Record
Temperature  
Mean Temperature 53 °F 56 °F  
Max Temperature 58 °F 65 °F 86 °F (1951)
Min Temperature 48 °F 46 °F 26 °F (1963)
Degree Days  
Heating Degree Days 12 10  
Month to date heating degree days 24 20  
Since 1 July heating degree days 6139 5531  
Cooling Degree Days 0 1  
Month to date cooling degree days 0 2  
Year to date cooling degree days 7 13  
Growing Degree Days 2 (Base 50)    
Moisture  
Dew Point 41 °F    
Average Humidity 66    
Maximum Humidity 77    
Minimum Humidity 55    
Precipitation  
Precipitation 0.02 in 0.11 in 1.16 in (2008)
Month to date precipitation 0.03 0.22  
Year to date precipitation 12.22 11.70  
Snow  
Snow 0.00 in 0.00 in - ()
Month to date snowfall 0.0 0.0  
Since 1 July snowfall 86.1 68.1  
Snow Depth 0.00 in    
Sea Level Pressure  
Sea Level Pressure 29.84 in    
Wind  
Wind Speed 11 mph (SW)    
Max Wind Speed 23 mph    
Max Gust Speed 27 mph    
Visibility 10 miles    
Events Rain    
T = Trace of Precipitation, MM = Missing Value Source: NWS Daily Summary

Daily Weather History Graph

Daily Weather History Graph

Search for Another Location

Airport or City:

Trip Planner

Search our weather history database for the weather conditions in past years. The results will help you decide how hot, cold, wet, or windy it might be!

Date:

Astronomy

May. 02, 2014 Rise Set
Actual Time 6:23 AM EDT 8:26 PM EDT
Civil Twilight 5:53 AM EDT 8:56 PM EDT
Nautical Twilight 5:16 AM EDT 9:33 PM EDT
Astronomical Twilight 4:36 AM EDT 10:13 PM EDT
Moon 8:58 AM EDT 11:48 PM EDT
Length of Visible Light 15h 03m
Length of Day
14h 02m
Waxing Crescent, 12% of the Moon is Illuminated
May 2
Waxing Crescent
May 6
First Quarter
May 14
Full
May 21
Last Quarter
May 28
New

Hourly Weather History & Observations

Time (EDT) Temp. Dew Point Humidity Pressure Visibility Wind Dir Wind Speed Gust Speed Precip Events Conditions
12:51 AM 51.1 °F 37.9 °F 61% 29.82 in 10.0 mi WSW 12.7 mph - N/A   Mostly Cloudy
1:51 AM 50.0 °F 37.4 °F 62% 29.82 in 10.0 mi WSW 17.3 mph 21.9 mph N/A   Mostly Cloudy
2:51 AM 50.0 °F 37.0 °F 61% 29.81 in 10.0 mi WSW 16.1 mph 24.2 mph N/A   Mostly Cloudy
3:21 AM 50.0 °F 37.9 °F 63% 29.81 in 10.0 mi WSW 13.8 mph - N/A   Overcast
3:51 AM 48.9 °F 37.9 °F 66% 29.81 in 10.0 mi WSW 16.1 mph 21.9 mph N/A   Overcast
4:51 AM 48.9 °F 37.9 °F 66% 29.81 in 10.0 mi SW 11.5 mph - N/A   Overcast
5:51 AM 48.9 °F 39.0 °F 69% 29.81 in 10.0 mi SW 11.5 mph - N/A   Overcast
6:51 AM 48.0 °F 39.9 °F 74% 29.82 in 10.0 mi SW 9.2 mph - N/A   Overcast
6:59 AM 48.0 °F 39.9 °F 74% 29.82 in 10.0 mi SW 11.5 mph - N/A   Overcast
7:51 AM 48.9 °F 41.0 °F 74% 29.84 in 10.0 mi WSW 11.5 mph - 0.01 in   Mostly Cloudy
8:51 AM 50.0 °F 39.9 °F 68% 29.84 in 10.0 mi WSW 12.7 mph - N/A   Overcast
9:51 AM 51.1 °F 39.9 °F 66% 29.84 in 10.0 mi WSW 16.1 mph - N/A   Overcast
10:51 AM 53.1 °F 41.0 °F 64% 29.85 in 10.0 mi SW 13.8 mph - N/A   Overcast
11:51 AM 54.0 °F 41.0 °F 62% 29.86 in 10.0 mi WSW 15.0 mph - N/A   Overcast
12:51 PM 55.9 °F 41.0 °F 57% 29.85 in 10.0 mi WSW 13.8 mph 23.0 mph N/A   Overcast
1:51 PM 55.0 °F 41.0 °F 59% 29.85 in 10.0 mi West 13.8 mph - N/A   Overcast
2:51 PM 57.0 °F 41.0 °F 55% 29.84 in 10.0 mi WSW 13.8 mph - N/A   Overcast
3:51 PM 55.9 °F 41.0 °F 57% 29.84 in 10.0 mi SSW 13.8 mph - N/A   Overcast
4:51 PM 55.0 °F 41.0 °F 59% 29.84 in 10.0 mi SW 13.8 mph 20.7 mph N/A   Overcast
5:51 PM 55.9 °F 41.0 °F 57% 29.84 in 10.0 mi SSW 11.5 mph - N/A   Overcast
6:51 PM 54.0 °F 42.1 °F 64% 29.86 in 10.0 mi SW 10.4 mph - N/A   Overcast
7:51 PM 51.1 °F 44.1 °F 77% 29.86 in 7.0 mi SW 5.8 mph - 0.01 in Rain Light Rain
8:51 PM 51.1 °F 44.1 °F 77% 29.87 in 10.0 mi Calm Calm - 0.00 in   Overcast
9:51 PM 52.0 °F 44.1 °F 74% 29.87 in 10.0 mi South 5.8 mph - N/A   Overcast
10:51 PM 52.0 °F 43.0 °F 71% 29.87 in 10.0 mi SSW 5.8 mph - N/A   Overcast
11:51 PM 51.1 °F 42.1 °F 71% 29.86 in 10.0 mi SSW 6.9 mph - N/A   Mostly Cloudy